Weather in Dubovoye

Russia / Jewish Autonomous Oblast     48°23′57″N   133°06′46″E
temp.,
°C
wind,
m/s
gust,
m/s
humid.,
%
clouds,
%
prec.,
mm/h
press.,
hPa
HPBL,
m
11 april, sun
sun1101:00+8ssw4104584 0.0 1020274
04:00+7s3948100 0.0 1019251
07:00+7sw2346100 0.0 101982
10:00+9sw4951100 0.1 1019492
13:00+9sw4866100 0.3 1019707
16:00+13wsw5754100 0.4 10181399
19:00+12wsw4861100 0.1 1019345
22:00+8wsw1178100 0.1 101913
12 april, mon
mon1201:00+7ne2560100 0.4 1019205
04:00+4e0281100 4.0 1019115
07:00+4ese1171100 0.8 101854
10:00+3ne2564100 1.4 1016244
13:00+4ese2371100 0.1 1013297
16:00+7nne4371100 0.1 1008232
19:00+8ne4470100 0.0 1005159
22:00+5nnw2388100 0.1 1005116
13 april, tue
tue1301:00+3wsw4892100 0.4 1005368
04:00−1wsw5989100 1.0 1005428
07:00−2w3568100 0.2 1005453
10:00−1wnw4560100 0.2 1005750
13:00+2wnw7754100 0.1 10061401
16:00+2w7845100 0.1 10061968
19:00−1w71055100 0.1 10061492
22:00−2w7126478 0.1 1005878
14 april, wed
wed1401:00−2w6115998 0.0 1005739
04:00−3wnw7115816 0.0 1005861
07:00−4wnw6106099 0.0 1006716
10:00−1wnw674786 0.0 10071226
13:00+1wnw6742100 0.1 10071846
16:00+2wnw6843100 0.1 10072242
19:00+1wnw695393 0.2 10091367
22:00−1wnw5116110 0.2 1011475
15 april, thu
thu1501:00−2w310630 0.0 1012350
04:00−2w25680 0.0 1013131
07:00−2wsw22640 0.0 101481
10:00+3s113660 0.0 1014714
13:00+6sse33325 0.0 10131404
16:00+8se5730100 0.0 10101532
19:00+8e51137100 0.0 1008564
22:00+3ene51263100 0.0 1008481